[[{"header":{"parameterUnit":"m.s-1","parameterCategory":1,"la1":30.2991,"la2":30.254,"lo1":-89.0895,"lo2":-89.0444,"dy":0.0017,"dx":0.0017,"nx":28,"ny":28,"refTime":"2023-08-08T03:00:00:Z","depth":0,"parameterNumber":2,"parameterNumberName":"U-component_of_WINDS"},"data":[0,0,0,0,0,0,0,0,0,0,0,0,0,0,0,0,0,0,0,0,0,0,0,0,0,0,0,0,0,0,0,0,0,0,0,0,0,0,0,0,0,0,0,0,0,0,0,0,0,0,0,0,0,0,0,0,0,0,0.9598,0.9599,0,0.9735,0.9737,0.9738,0.979,0.9789,0.9789,0.9789,0.9936,0.994,0.9944,0,0,0,0,0,0,0,0,0,0,0,0,0,0.9387,0.9391,0.9598,0.96,0.9601,0.9735,0.9737,0.9739,0.979,0.9789,0.9789,0.9788,0.9934,0.994,0.9945,0,0,0,0,0,0,0,0,0,0,0,0,0,0.9497,0.9392,0.9598,0.9643,0.9648,0.9735,0.9737,0.9739,0.979,0.9789,0.9789,0.9788,0.9933,0.9939,0.9945,0.9999,0,0,0.9965,0.9968,0,0,0,0,0,0,0,0,0.9491,0.9505,0.9634,0.964,0.9646,0.9745,0.9717,0.9827,0.979,0.9736,0.9789,0.9788,0.9873,0.9885,0.9912,1.0006,1.0012,0.9966,0.997,0.9973,0.9974,0,0,0,0,0,0,0,0.9483,0.9499,0.9652,0.9636,0.9643,0.9659,0.9673,0.9738,0.9807,0.9741,0.9745,0.976,0.9876,0.9906,0.9916,1.0014,0.9966,0.9972,0.9976,0.9978,1.016,1.0161,0,0,0,0,0,0,0.9467,0.9492,0.9648,0.9657,0.9565,0.9663,0.9679,0.9714,0.9806,0.982,0.9761,0.9762,0.9895,0.9908,0.9921,0.999,0.9973,0.9979,0.9982,1.0159,1.016,1.0161,0,0,0,0,0,0,0.9462,0.948,0.9643,0.9576,0.9597,0.9667,0.9705,0.9717,0.9746,0.9821,0.9835,0.9777,0.9895,0.9912,0.9979,0.9996,0.9982,0.9988,1.0158,1.0159,1.0161,1.0128,0,0,0,0,0,0,0.9456,0.9478,0.9498,0.9576,0.9601,0.9696,0.9706,0.972,0.9756,0.9759,0.984,0.9853,0.9896,0.9969,0.9985,1.0005,0.9993,1.0157,1.0159,1.016,1.0128,1.0128,1.0128,0,0,0,0,0,0.9448,0.9484,0.9498,0.9517,0.9626,0.9696,0.9711,0.9757,0.9757,0.9778,0.9827,0.9851,0.9991,0.9975,0.9994,1.0016,1.0156,1.0158,1.016,1.0127,1.0128,1.0128,0,0,0,0,0,0,0.9408,0.9495,0.9512,0.9573,0.9627,0.9705,0.9733,0.9756,0.9812,0.9813,0.987,0.9888,0.995,0.999,0.9971,1.0073,1.0076,1.0081,1.0044,1.0045,1.0045,1.0034,0.9998,0,0,0,0,0,0.9406,0.9454,0.9528,0.9576,0.9602,0.9662,0.9695,0.9726,0.9784,0.9808,0.9861,0.9919,0.9977,1.0013,1.007,1.0134,1.0153,1.0158,1.0158,1.0158,1.0163,1.02,1.0203,1.0168,1.0168,1.0168,0,0,0.9403,0.9457,0.9484,0.9569,0.9614,0.9664,0.9681,0.9734,0.9772,0.9817,0.9882,0.9924,0.9992,1.0057,1.0089,1.0093,1.0177,1.0161,1.016,1.0165,1.0203,1.0206,1.0209,1.017,1.0169,1.0169,0,0,0.9423,0.9468,0.9512,0.9557,0.9624,0.9665,0.9675,0.975,0.9779,0.9845,0.9879,0.9928,1.0025,1.0072,1.0109,1.0148,1.0172,1.0165,1.0166,1.0202,1.0205,1.0208,1.0222,1.0226,1.017,1.017,1.017,0,0.9412,0.9486,0.9533,0.9583,0.9621,0.9661,0.9708,0.975,0.9833,0.9859,0.9861,0.9984,1.0033,1.011,1.012,1.0148,1.0164,1.0156,1.02,1.0203,1.0207,1.0221,1.0226,1.0168,1.0168,1.0169,1.0169,0,0.9469,0.9521,0.9549,0.9626,0.9667,0.9715,0.9771,0.9807,0.9834,0.9875,0.9943,1.0003,1.0073,1.0094,1.0123,1.0176,1.0176,1.0189,1.0192,1.0208,1.0222,1.0228,1.0166,1.0167,1.0167,1.0168,0,0,0.9467,0.9569,0.9579,0.9614,0.9692,0.9734,0.9785,0.9851,0.9881,0.9938,0.9983,1.0065,1.0077,1.0119,1.0153,1.0184,1.0212,1.0194,1.0196,1.0195,1.0275,1.0265,1.027,1.0228,1.023,1.0231,1.0269,0,0.9497,0.9587,0.9631,0.9704,0.9753,0.9792,0.9837,0.9891,0.9931,0.998,1.0025,1.0082,1.0093,1.0119,1.0152,1.0201,1.0229,1.0199,1.0273,1.0275,1.0253,1.0278,1.0267,1.0301,1.0275,1.0276,1.0277,0,0.9544,0.9598,0.9674,0.9747,0.9769,0.9808,0.9873,0.9919,0.9981,1.0008,1.0055,1.0088,1.0146,1.0145,1.0226,1.0205,1.0238,1.0267,1.027,1.0278,1.0276,1.0287,1.0312,1.0317,1.0286,1.0285,1.0285,0,0.9535,0.9627,0.9685,0.9714,0.98,0.9827,0.9864,0.9926,0.9963,1.0021,1.0046,1.011,1.0145,1.0195,1.0246,1.0241,1.0322,1.0326,1.0347,1.0346,1.0362,1.036,1.0393,1.0384,1.0383,1.0383,1.0383,0,0.9564,0.9609,0.9682,0.9717,0.977,0.9821,0.9872,0.9913,0.9968,1.0013,1.0053,1.0095,1.0159,1.0211,1.0251,1.0312,1.0328,1.0353,1.0363,1.0349,1.0346,1.0371,1.037,1.0385,1.0384,1.0384,1.0384,0,0.9562,0.9612,0.9678,0.9753,0.9773,0.9809,0.9874,0.9912,0.9953,1.0011,1.0027,1.0094,1.0156,1.0211,1.0295,1.0322,1.0384,1.0397,1.0362,1.0368,1.0386,1.0383,1.0436,1.0446,1.0429,1.0429,1.0429,0,0.9577,0.9612,0.9691,0.9723,0.9759,0.9811,0.9849,0.9902,0.994,1.0014,1.0042,1.0107,1.0162,1.026,1.0317,1.0381,1.0396,1.041,1.0406,1.0391,1.0396,1.0393,1.0397,1.0409,1.0409,1.0409,1.0409,0,0.9598,0.9621,0.9673,0.9733,0.9777,0.9828,0.988,0.9905,0.9968,1.0009,1.0072,1.0114,1.0198,1.0263,1.0333,1.0375,1.0403,1.041,1.0418,1.0404,1.0382,1.0394,1.0361,1.0408,1.0409,1.0409,1.0409,1.0409,0.9605,0.9638,0.9699,0.9756,0.98,0.9848,0.9887,0.9933,0.9985,1.0056,1.0085,1.0149,1.0213,1.031,1.0351,1.0404,1.0409,1.0421,1.0424,1.0426,1.0423,1.0374,1.0417,1.0417,1.0417,1.0417,1.0417,0,0.9628,0.9669,0.972,0.9791,0.9837,0.9857,0.9917,0.9953,1.0009,1.0064,1.0117,1.019,1.0252,1.0314,1.0381,1.0411,1.0426,1.0427,1.0425,1.0434,1.0415,1.0401,1.0413,1.0413,1.0413,1.0413,1.0413,1.0413,0.9645,0.9703,0.9733,0.9814,0.9856,0.9917,0.9949,0.9995,1.0039,1.0118,1.0169,1.0208,1.0267,1.0338,1.0397,1.0414,1.0437,1.0434,1.0455,1.0436,1.0435,1.0435,1.0422,1.0439,1.0439,1.047,1.047,1.047]},{"header":{"parameterUnit":"m.s-1","parameterCategory":1,"la1":30.2991,"la2":30.254,"lo1":-89.0895,"lo2":-89.0444,"dy":0.0017,"dx":0.0017,"nx":28,"ny":28,"refTime":"2023-08-08T03:00:00:Z","depth":0,"parameterNumber":3,"parameterNumberName":"V-component_of_WINDS"},"data":[0,0,0,0,0,0,0,0,0,0,0,0,0,0,0,0,0,0,0,0,0,0,0,0,0,0,0,0,0,0,0,0,0,0,0,0,0,0,0,0,0,0,0,0,0,0,0,0,0,0,0,0,0,0,0,0,0,0,3.685,3.6851,0,3.6879,3.688,3.688,3.6892,3.6892,3.6892,3.6892,3.6919,3.6919,3.692,0,0,0,0,0,0,0,0,0,0,0,0,0,3.6801,3.6802,3.685,3.6851,3.6851,3.6879,3.688,3.688,3.6892,3.6892,3.6892,3.6892,3.6918,3.6919,3.692,0,0,0,0,0,0,0,0,0,0,0,0,0,3.6825,3.6802,3.685,3.6861,3.6862,3.6879,3.688,3.688,3.6892,3.6892,3.6892,3.6892,3.6918,3.6919,3.692,3.6929,0,0,3.6924,3.6924,0,0,0,0,0,0,0,0,3.6824,3.6827,3.6859,3.686,3.6861,3.6882,3.6872,3.6896,3.6892,3.688,3.6892,3.6892,3.6906,3.6908,3.6914,3.693,3.6931,3.6924,3.6924,3.6925,3.6925,0,0,0,0,0,0,0,3.6822,3.6826,3.6862,3.6859,3.6861,3.6862,3.6866,3.6877,3.6893,3.6881,3.6882,3.6886,3.6907,3.6913,3.6915,3.6932,3.6924,3.6925,3.6925,3.6926,3.6954,3.6954,0,0,0,0,0,0,3.6819,3.6824,3.6861,3.6863,3.6842,3.6863,3.6867,3.6875,3.6893,3.6896,3.6886,3.6886,3.6911,3.6913,3.6916,3.6926,3.6925,3.6926,3.6927,3.6954,3.6954,3.6954,0,0,0,0,0,0,3.6818,3.6823,3.686,3.6844,3.6849,3.6864,3.6873,3.6876,3.6882,3.6897,3.6899,3.6889,3.6911,3.6914,3.6925,3.6927,3.6927,3.6928,3.6954,3.6954,3.6954,3.6946,0,0,0,0,0,0,3.6817,3.6822,3.6827,3.6844,3.6849,3.687,3.6874,3.6877,3.6884,3.6885,3.69,3.6903,3.6911,3.6923,3.6926,3.6928,3.6928,3.6954,3.6954,3.6954,3.6946,3.6946,3.6946,0,0,0,0,0,3.6815,3.6823,3.6827,3.6831,3.6856,3.687,3.6873,3.6884,3.6884,3.6888,3.6897,3.6902,3.6926,3.6924,3.6928,3.693,3.6954,3.6954,3.6954,3.6947,3.6946,3.6946,0,0,0,0,0,0,3.6805,3.6826,3.683,3.6844,3.6855,3.6872,3.6878,3.6883,3.6893,3.6894,3.6905,3.6908,3.6918,3.6925,3.6923,3.6938,3.694,3.6941,3.6933,3.6933,3.6933,3.6931,3.6929,0,0,0,0,0,3.6805,3.6816,3.6833,3.6844,3.6849,3.6862,3.6869,3.6876,3.6887,3.6892,3.6902,3.6912,3.6922,3.6928,3.6937,3.6947,3.695,3.695,3.695,3.695,3.695,3.6954,3.6954,3.6954,3.6954,3.6954,0,0,3.6804,3.6817,3.6823,3.6842,3.6852,3.6861,3.6866,3.6877,3.6884,3.6893,3.6905,3.6912,3.6924,3.6934,3.6939,3.694,3.6951,3.695,3.6949,3.695,3.6954,3.6954,3.6954,3.6954,3.6954,3.6954,0,0,3.6808,3.6819,3.6829,3.6838,3.6852,3.686,3.6862,3.6878,3.6883,3.6895,3.6902,3.6909,3.6926,3.6934,3.694,3.6944,3.6948,3.6946,3.6945,3.6949,3.6949,3.6949,3.6949,3.6949,3.6947,3.6947,3.6947,0,3.6805,3.6821,3.6833,3.6842,3.685,3.6859,3.6867,3.6875,3.6892,3.6896,3.6897,3.6917,3.6926,3.6937,3.6938,3.6943,3.6945,3.6945,3.6948,3.6948,3.6948,3.6949,3.6949,3.6947,3.6947,3.6947,3.6947,0,3.6816,3.6827,3.6833,3.6849,3.6856,3.6866,3.6877,3.6883,3.6888,3.6896,3.6906,3.6917,3.6928,3.6931,3.6937,3.6943,3.6943,3.6946,3.6948,3.6948,3.6948,3.6949,3.6946,3.6946,3.6946,3.6946,0,0,3.6816,3.6836,3.6838,3.6845,3.686,3.6868,3.6877,3.6888,3.6893,3.6903,3.691,3.6923,3.6925,3.6932,3.6938,3.6941,3.6942,3.6944,3.6944,3.6942,3.6948,3.6945,3.6946,3.6945,3.6945,3.6945,3.6947,0,3.6821,3.6838,3.6847,3.686,3.6869,3.6876,3.6884,3.6893,3.69,3.6907,3.6914,3.6923,3.6926,3.693,3.6934,3.6941,3.6943,3.6941,3.695,3.695,3.6947,3.6946,3.6944,3.6945,3.6947,3.6947,3.6947,0,3.6829,3.684,3.6853,3.6866,3.687,3.6876,3.6887,3.6894,3.6904,3.6909,3.6916,3.6921,3.6929,3.693,3.694,3.6938,3.6942,3.6946,3.6946,3.6947,3.6949,3.6946,3.6945,3.6945,3.6948,3.6948,3.6948,0,3.6826,3.6843,3.6853,3.6859,3.6874,3.6878,3.6884,3.6894,3.69,3.6909,3.6912,3.6921,3.6926,3.6932,3.694,3.694,3.6948,3.695,3.6951,3.6951,3.6953,3.6952,3.6952,3.6956,3.6956,3.6956,3.6956,0,3.6831,3.6838,3.6852,3.6858,3.6866,3.6876,3.6883,3.689,3.6898,3.6904,3.6911,3.6917,3.6927,3.6933,3.6939,3.6945,3.6947,3.695,3.6952,3.695,3.6949,3.6952,3.6952,3.6956,3.6956,3.6956,3.6956,0,3.6829,3.6839,3.685,3.6863,3.6866,3.6872,3.6882,3.6887,3.6894,3.6902,3.6904,3.6914,3.6922,3.693,3.694,3.6944,3.695,3.6952,3.6947,3.6947,3.6947,3.6947,3.6948,3.6949,3.6953,3.6953,3.6953,0,3.6831,3.6837,3.6851,3.6856,3.6862,3.687,3.6876,3.6885,3.689,3.6901,3.6904,3.6912,3.692,3.6931,3.6939,3.6946,3.6948,3.6948,3.6949,3.6946,3.6947,3.6947,3.6947,3.6947,3.6947,3.6947,3.6947,0,3.6834,3.6838,3.6846,3.6856,3.6862,3.687,3.6878,3.6881,3.6892,3.6897,3.6905,3.691,3.6921,3.6928,3.6936,3.6941,3.6945,3.6947,3.6947,3.6945,3.6941,3.6943,3.6945,3.6947,3.6947,3.6947,3.6947,3.6947,3.6833,3.6838,3.6848,3.6857,3.6864,3.6871,3.6876,3.6883,3.689,3.6899,3.6904,3.6911,3.6919,3.6931,3.6935,3.6941,3.6942,3.6943,3.6943,3.6943,3.6942,3.6941,3.6942,3.6942,3.6942,3.6942,3.6942,0,3.6835,3.6842,3.685,3.686,3.6866,3.687,3.6879,3.6883,3.689,3.6898,3.6904,3.6912,3.6919,3.6927,3.6934,3.6937,3.6939,3.6938,3.6938,3.6939,3.6941,3.6939,3.6936,3.6936,3.6936,3.6936,3.6936,3.6936,3.6837,3.6845,3.685,3.6861,3.6867,3.6875,3.6879,3.6885,3.6891,3.69,3.6906,3.6911,3.6918,3.6925,3.6931,3.6933,3.6935,3.6934,3.6936,3.6938,3.6939,3.6939,3.6938,3.6935,3.6935,3.6934,3.6934,3.6934]}]]